Location: Volkssternwarte_EN
(51.3230°N, 7.4010°E)
Time: 13:39:36
(UTC+02:00)

N. Korean satellite - Pass Details

Date: 30 September 2021
Orbit: 450 x 495 km, 97.3° (Epoch: 23 October)

Event Time Altitude Azimuth Distance (km) Brightness Sun altitude
Rises 06:17:15 0° 21° (NNE) 2,542 10.7 -12.1°
Reaches altitude 10° 06:19:29 10° 33° (NNE) 1,666 9.9 -11.7°
Maximum altitude 06:22:41 30° 96° (E) 896 8.7 -11.2°
Drops below altitude 10° 06:25:54 10° 159° (SSE) 1,673 9.4 -10.7°
Sets 06:28:09 0° 170° (S) 2,555 10.3 -10.4°
